Temp
11 11 12 12 12 13 13 13 13 13 13 13 13 13 13 13 13 13 14 16 16 15 15 14 14 14 14 14 14 14 11 11 13 12 16 15 15 16 17 17 17 17 18 18 18
12 12 12 12 13 13 13 13 13 13 13 13 13 13 13 13 13 14 16 15 15 15 15 14 14 14 14 14 14 12 10 12 12 12 15 16 16 17 17 16 16 17 18 18 17
12 12 12 12 13 13 13 13 13 13 13 13 13 13 13 13 13 16 16 15 15 15 15 14 14 14 14 14 13 11 11 11 14 14 15 15 16 16 16 15 17 18 19 17 17
12 12 12 12 12 13 13 13 13 13 13 13 13 13 13 13 14 16 16 16 15 14 14 14 14 14 11 12 13 12 12 13 14 15 15 15 16 15 16 17 18 18 17 18 17
11 11 12 12 12 13 13 13 13 13 13 13 13 13 12 12 15 15 16 15 15 14 14 14 14 13 12 11 12 11 12 14 15 15 14 14 14 14 15 17 16 16 16 16 17
11 11 12 12 12 12 13 13 13 13 13 13 13 12 12 11 14 15 15 15 15 14 14 14 14 14 13 13 12 12 12 13 14 15 14 13 13 14 15 15 14 13 12 12 11
11 11 12 12 12 12 13 13 13 13 13 13 12 12 12 14 14 14 14 14 14 14 14 14 14 15 14 12 13 13 12 11 12 12 12 13 13 12 13 13 10 9 9 9 9
11 11 12 12 12 13 13 13 13 13 13 12 12 12 13 14 14 14 14 14 13 14 14 14 14 14 14 13 12 12 11 12 13 12 12 13 16 11 10 12 4 3 4 6 5
11 11 12 12 12 13 13 13 13 12 12 12 11 11 13 13 13 13 13 14 13 13 13 14 14 13 13 10 10 9 12 11 12 12 12 13 15 5 4 4 1 -0 -1 -1 2
11 11 11 12 12 12 12 13 12 11 11 11 11 11 12 13 13 13 13 13 13 13 13 13 12 8 7 10 11 11 11 10 12 13 12 13 13 3 2 1 -0 -1 -2 -3 -3
11 11 11 12 12 12 11 11 11 10 10 12 12 12 12 12 12 12 13 13 13 13 10 10 10 9 9 9 11 10 11 11 11 12 13 12 10 3 1 -0 -1 -2 -3 -4 -4
10 11 11 11 12 12 11 11 12 12 11 12 12 12 12 12 12 12 13 13 12 10 9 9 9 10 10 9 10 10 10 9 10 10 10 10 3 1 0 -1 -3 -4 -5 -6 -5
10 11 11 11 12 11 11 11 12 12 10 11 11 12 12 12 12 12 12 12 10 9 9 9 11 8 10 9 9 9 9 9 11 10 10 10 6 2 -1 -2 -3 -4 -6 -7 -7
10 11 11 11 11 11 11 11 12 12 8 11 11 11 12 12 11 12 12 12 10 9 7 9 9 10 10 10 9 10 9 10 10 10 11 10 11 4 -0 -2 -4 -5 -6 -8 -8
9 10 11 11 11 10 11 11 11 11 9 11 11 12 12 12 11 11 11 12 9 9 9 11 10 10 9 10 9 10 9 8 9 9 9 9 10 4 2 -1 -4 -6 -7 -8 -9
8 8 9 10 9 10 10 10 10 9 8 10 11 11 11 10 10 11 11 12 10 10 9 9 10 11 10 10 9 9 9 7 6 7 8 8 10 3 -1 -4 -4 -6 -7 -8 -9
7 7 8 8 8 9 9 10 9 9 9 9 9 9 7 7 8 8 5 3 5 9 8 8 9 10 10 10 10 10 9 9 9 7 9 7 9 -0 -4 -5 -6 -7 -8 -9 -10
7 8 8 8 8 8 9 8 10 7 7 7 7 7 6 5 6 5 5 4 3 4 5 7 9 8 8 10 10 8 8 8 10 9 9 7 8 -2 -5 -6 -7 -8 -9 -10 -10
8 8 7 8 8 8 9 7 6 6 5 5 7 8 6 6 6 4 5 5 4 2 6 5 7 6 8 7 9 9 8 9 9 7 7 6 -3 -4 -4 -6 -8 -8 -10 -11 -12
8 8 8 8 8 8 6 6 4 4 4 5 7 5 6 4 6 4 4 4 5 4 3 3 5 4 4 7 7 7 6 8 7 8 7 7 1 -1 -5 -7 -8 -9 -11 -12 -13
8 8 8 8 8 8 4 5 4 3 3 4 5 4 3 4 4 3 3 2 2 3 2 2 3 5 5 2 3 4 3 3 4 4 7 6 2 -6 -7 -8 -9 -10 -11 -12 -13
8 6 8 8 5 2 2 3 3 1 2 2 2 2 2 1 2 2 2 1 1 1 1 1 -1 1 1 -0 0 -1 0 1 4 2 1 2 -0 -9 -9 -10 -10 -12 -13 -14 -14
8 7 8 9 4 2 2 1 0 0 -1 0 0 0 0 -0 1 1 0 -1 0 1 -1 1 -1 -2 2 1 2 -3 -4 -3 -1 -1 -2 -0 -2 -11 -12 -12 -12 -13 -14 -14 -14
7 5 5 5 1 1 1 1 0 0 -1 -1 -1 -0 -0 -1 -1 -1 -0 -1 -1 -0 1 1 -3 -3 -2 -1 -2 -3 -5 -5 -6 -8 -6 -5 -11 -14 -15 -14 -14 -14 -14 -14 -14
5 -2 -1 -1 -1 -1 -0 1 0 -0 -0 -1 -1 -1 -1 -1 -1 -2 -2 -2 -1 -2 -2 -3 -5 -3 -2 -0 -3 -8 -7 -7 -7 -13 -7 -12 -13 -18 -18 -17 -14 -14 -15 -15 -15
2 0 0 -2 -1 -2 -2 -2 -0 -2 -1 -1 -1 -2 -2 -1 -1 -2 -2 -2 -3 -3 -3 -3 -6 -3 -6 -4 -5 -10 -10 -9 -9 -13 -16 -18 -16 -17 -15 -15 -15 -15 -16 -16 -16
1 1 2 -2 -2 -1 -3 -2 -2 -2 -2 -2 -2 -3 -3 -2 -2 -2 -2 -2 -2 -3 -4 -3 -5 -8 -10 -5 -6 -8 -13 -9 -11 -13 -13 -10 -16 -16 -17 -16 -16 -16 -18 -17 -15
Height
1476 1474 1473 1474 1474 1474 1474 1474 1475 1476 1477 1478 1479 1481 1481 1482 1482 1484 1482 1485 1484 1488 1490 1494 1496 1498 1499 1501 1501 1504 1512 1516 1509 1510 1499 1497 1497 1497 1497 1497 1498 1499 1500 1501 1502
1476 1473 1473 1472 1471 1471 1471 1472 1473 1474 1475 1475 1479 1479 1480 1480 1480 1479 1481 1481 1482 1485 1487 1491 1494 1496 1498 1499 1501 1504 1513 1508 1501 1500 1498 1497 1497 1497 1497 1497 1497 1498 1498 1499 1501
1476 1475 1473 1471 1469 1469 1470 1470 1471 1472 1473 1475 1477 1477 1478 1479 1479 1475 1475 1476 1479 1482 1486 1491 1494 1495 1496 1498 1500 1503 1507 1502 1498 1497 1498 1497 1497 1497 1496 1497 1495 1495 1496 1497 1498
1476 1475 1474 1471 1469 1467 1468 1468 1469 1470 1472 1473 1475 1475 1476 1478 1481 1473 1473 1474 1478 1481 1485 1489 1492 1493 1495 1498 1498 1502 1499 1500 1498 1497 1497 1497 1497 1496 1494 1493 1494 1494 1494 1495 1496
1477 1475 1473 1471 1467 1466 1465 1465 1466 1468 1469 1471 1473 1474 1475 1477 1474 1473 1472 1474 1477 1480 1484 1486 1489 1491 1494 1495 1497 1499 1497 1497 1496 1496 1496 1496 1496 1496 1490 1493 1493 1492 1494 1495 1497
1476 1475 1472 1470 1467 1465 1464 1464 1465 1466 1468 1469 1471 1473 1475 1476 1472 1472 1473 1475 1477 1480 1483 1485 1486 1489 1491 1493 1496 1495 1495 1494 1492 1491 1493 1493 1495 1495 1493 1493 1493 1494 1495 1497 1499
1475 1472 1470 1468 1466 1464 1463 1463 1463 1465 1467 1468 1470 1471 1472 1472 1471 1472 1474 1476 1478 1480 1481 1484 1485 1488 1489 1492 1493 1493 1495 1492 1489 1489 1490 1490 1495 1496 1495 1494 1493 1495 1496 1496 1497
1472 1470 1468 1466 1465 1463 1462 1462 1463 1463 1465 1467 1469 1471 1469 1468 1469 1471 1473 1475 1478 1480 1482 1483 1485 1487 1488 1490 1492 1494 1497 1498 1489 1488 1489 1490 1493 1499 1497 1492 1496 1498 1498 1499 1499
1469 1467 1466 1464 1463 1461 1461 1460 1461 1462 1464 1466 1468 1469 1467 1466 1467 1469 1472 1474 1477 1479 1481 1482 1485 1486 1488 1493 1499 1500 1500 1501 1493 1489 1488 1490 1491 1504 1500 1496 1501 1503 1503 1502 1500
1466 1464 1463 1461 1460 1460 1459 1459 1459 1461 1463 1466 1467 1471 1465 1464 1464 1467 1471 1473 1476 1479 1481 1483 1484 1488 1492 1494 1500 1498 1501 1501 1497 1492 1490 1491 1493 1506 1505 1499 1506 1508 1508 1507 1505
1462 1460 1459 1458 1458 1458 1458 1459 1463 1464 1462 1460 1461 1462 1462 1463 1465 1467 1470 1473 1475 1478 1482 1482 1487 1486 1487 1488 1489 1493 1495 1495 1493 1489 1491 1492 1496 1512 1513 1508 1512 1513 1512 1511 1509
1457 1456 1455 1455 1454 1455 1455 1456 1457 1458 1457 1457 1459 1460 1461 1462 1465 1467 1470 1472 1473 1479 1481 1486 1485 1480 1481 1486 1489 1492 1494 1497 1491 1488 1491 1494 1514 1519 1518 1521 1522 1522 1519 1517 1511
1453 1452 1451 1451 1451 1452 1452 1454 1454 1455 1457 1457 1457 1458 1461 1463 1463 1465 1468 1469 1472 1478 1481 1483 1477 1476 1480 1486 1489 1492 1494 1493 1489 1489 1489 1491 1506 1516 1526 1526 1526 1526 1526 1522 1518
1449 1447 1447 1448 1451 1449 1450 1452 1453 1454 1464 1458 1457 1457 1459 1460 1463 1464 1467 1469 1472 1476 1481 1480 1475 1477 1479 1481 1484 1488 1481 1482 1487 1490 1492 1488 1490 1512 1523 1527 1529 1530 1528 1526 1522
1445 1443 1442 1443 1445 1446 1449 1450 1452 1454 1478 1458 1456 1457 1457 1460 1463 1465 1466 1467 1471 1473 1477 1475 1473 1476 1478 1476 1477 1478 1478 1483 1485 1490 1491 1490 1491 1507 1518 1522 1532 1535 1534 1531 1528
1441 1440 1439 1440 1443 1445 1447 1449 1452 1462 1474 1457 1455 1456 1458 1460 1463 1465 1466 1468 1470 1472 1474 1474 1472 1472 1472 1472 1474 1476 1480 1487 1493 1494 1495 1485 1481 1510 1529 1538 1539 1540 1538 1535 1530
1440 1440 1439 1440 1442 1444 1446 1449 1460 1464 1455 1461 1460 1458 1462 1467 1466 1467 1476 1482 1484 1478 1480 1476 1472 1471 1471 1473 1475 1476 1482 1491 1490 1497 1484 1486 1485 1527 1540 1544 1545 1544 1542 1539 1534
1439 1439 1439 1439 1440 1443 1446 1451 1454 1460 1462 1461 1461 1461 1467 1471 1473 1474 1480 1488 1488 1488 1488 1485 1480 1476 1474 1473 1473 1478 1481 1487 1485 1489 1483 1487 1484 1531 1545 1546 1547 1546 1545 1542 1537
1438 1439 1439 1438 1439 1443 1447 1456 1461 1462 1465 1464 1461 1463 1471 1472 1471 1479 1484 1487 1491 1492 1485 1491 1481 1480 1477 1476 1476 1478 1481 1479 1480 1487 1490 1489 1536 1541 1544 1546 1548 1546 1544 1542 1539
1439 1439 1439 1438 1440 1444 1448 1458 1466 1466 1465 1464 1461 1469 1471 1476 1473 1478 1487 1492 1490 1492 1491 1497 1490 1487 1482 1476 1477 1478 1484 1481 1487 1483 1485 1480 1511 1521 1542 1546 1548 1548 1547 1545 1541
1439 1439 1440 1439 1442 1444 1456 1462 1466 1468 1466 1465 1467 1472 1476 1477 1477 1483 1488 1496 1495 1494 1493 1497 1497 1489 1484 1499 1497 1492 1496 1498 1495 1501 1482 1483 1500 1544 1549 1551 1551 1551 1550 1548 1544
1439 1440 1439 1440 1445 1454 1461 1464 1467 1470 1468 1469 1472 1475 1478 1483 1485 1486 1491 1495 1496 1496 1498 1501 1507 1506 1508 1508 1503 1505 1510 1508 1500 1507 1513 1508 1513 1553 1553 1553 1553 1552 1551 1549 1546
1437 1439 1439 1439 1451 1461 1466 1469 1473 1473 1476 1475 1480 1481 1482 1488 1490 1490 1494 1500 1498 1498 1502 1501 1510 1524 1505 1509 1504 1516 1523 1521 1518 1520 1524 1522 1520 1554 1555 1554 1553 1552 1550 1548 1545
1438 1442 1443 1443 1452 1457 1465 1472 1476 1477 1479 1481 1484 1483 1485 1491 1492 1495 1497 1500 1500 1500 1499 1499 1509 1513 1515 1510 1514 1521 1527 1528 1531 1548 1538 1528 1551 1558 1558 1556 1553 1551 1550 1547 1545
1439 1452 1454 1460 1461 1461 1464 1472 1476 1479 1481 1482 1486 1487 1488 1492 1495 1499 1501 1501 1501 1501 1501 1504 1519 1513 1512 1509 1516 1533 1531 1532 1534 1553 1538 1553 1556 1561 1557 1554 1552 1550 1548 1546 1543
1443 1450 1457 1462 1465 1466 1470 1478 1478 1483 1483 1485 1486 1489 1490 1493 1496 1500 1500 1502 1504 1504 1505 1507 1519 1515 1524 1519 1521 1540 1542 1538 1539 1551 1558 1565 1560 1556 1553 1552 1549 1547 1546 1544 1541
1450 1452 1455 1467 1467 1468 1477 1479 1482 1482 1488 1488 1489 1491 1494 1497 1497 1499 1500 1502 1505 1507 1509 1510 1516 1530 1543 1521 1526 1539 1552 1542 1546 1552 1552 1545 1558 1555 1551 1548 1545 1542 1543 1542 1539
Wind_Speed
14 12 10 8 8 8 9 10 10 10 9 9 8 9 9 10 11 16 19 15 8 11 16 15 13 14 14 9 5 4 3 1 4 5 3 1 1 1 1 2 4 5 6 6 3
15 15 13 11 10 9 10 10 10 9 9 8 9 9 9 8 11 18 13 10 13 18 18 20 18 18 8 7 5 4 3 7 4 4 2 2 1 1 2 2 4 7 13 14 12
15 15 14 13 10 10 11 11 11 10 9 10 9 9 7 6 9 6 4 15 13 17 16 17 16 16 5 6 6 5 4 3 4 8 6 2 2 2 2 3 11 11 11 13 15
14 15 16 16 10 7 9 11 10 10 9 9 9 8 6 5 3 2 7 14 17 19 18 17 20 10 5 4 6 2 7 6 4 1 1 2 2 6 11 10 14 14 12 11 12
14 14 15 16 12 6 5 8 9 9 9 9 9 8 6 5 8 6 0 18 20 20 18 20 21 8 6 5 5 4 4 8 14 14 12 11 9 9 17 21 16 17 16 13 12
13 14 14 15 14 7 4 4 6 8 8 8 8 8 7 3 4 3 10 15 19 20 18 17 14 11 6 4 5 4 5 9 10 13 6 5 1 1 4 8 15 17 15 10 9
14 13 13 13 13 8 4 2 3 6 8 8 8 8 8 10 3 5 12 14 15 15 17 15 10 11 7 4 2 1 4 6 2 1 4 6 1 3 15 15 24 25 24 20 15
15 14 13 11 11 8 5 4 4 5 7 8 8 7 6 6 9 8 14 14 13 12 10 14 9 8 2 4 4 3 4 3 2 1 3 5 2 10 19 19 24 25 25 22 21
16 15 13 11 10 9 6 3 2 4 7 8 8 7 4 4 9 12 13 13 13 11 8 13 11 4 4 5 4 5 3 3 6 2 2 3 1 11 21 24 25 26 27 27 23
17 15 13 11 9 8 4 1 3 6 9 8 6 4 6 3 6 14 14 12 11 13 10 6 4 3 3 4 5 5 3 3 4 2 4 3 5 13 23 29 25 26 28 29 30
16 14 12 11 8 6 4 4 5 3 10 6 4 1 3 6 9 14 16 14 14 7 4 1 3 7 8 6 3 5 3 3 2 3 2 6 1 14 18 29 27 28 30 30 30
15 13 11 10 9 7 8 5 5 2 3 11 10 8 4 7 4 15 17 8 6 4 5 4 7 5 5 4 4 2 1 5 5 2 6 4 7 13 20 23 25 26 28 30 35
15 14 11 10 8 8 10 8 5 3 1 2 4 5 10 9 2 15 18 8 4 5 5 6 3 5 6 4 5 4 5 5 8 1 2 4 4 4 12 21 23 25 25 29 31
15 14 11 8 7 10 10 9 6 4 4 2 3 2 5 6 2 9 14 4 2 6 7 4 2 4 4 5 7 3 8 6 4 3 3 2 3 4 10 14 22 25 27 28 31
13 12 9 9 5 12 7 9 6 4 1 1 2 4 6 5 9 3 8 2 6 5 5 4 4 3 3 5 8 6 4 6 4 4 1 2 2 4 5 9 16 22 24 25 26
7 6 3 9 11 10 10 9 7 4 5 2 2 1 4 5 3 4 3 5 3 3 1 5 2 2 4 2 4 5 5 5 4 3 2 7 6 3 4 6 11 17 21 23 26
2 3 2 6 9 12 11 10 4 3 3 3 3 3 5 5 4 5 5 7 3 2 3 4 1 1 1 2 1 3 5 2 1 0 5 1 2 6 8 11 11 14 18 21 24
9 7 4 2 8 12 13 3 4 2 2 2 3 3 5 5 4 4 4 3 5 4 3 2 1 5 8 2 1 4 6 4 5 3 2 2 3 4 11 11 12 14 16 19 23
6 5 10 2 8 12 4 3 2 1 1 2 2 4 2 3 3 5 4 3 5 5 3 1 3 5 2 4 3 2 3 1 1 1 1 4 4 5 7 10 14 16 19 21 23
4 2 12 4 8 11 4 4 3 2 3 1 3 1 3 4 3 4 2 3 3 6 1 1 3 2 5 4 5 3 3 1 2 3 4 2 4 5 5 8 9 14 17 18 21
3 1 9 8 10 6 4 4 4 5 1 4 2 3 3 2 3 3 3 4 5 3 8 2 1 5 3 7 3 5 4 4 1 2 3 2 2 3 3 6 7 10 13 16 20
2 2 7 8 5 4 3 3 3 6 11 6 4 5 3 3 4 3 4 4 7 2 3 1 3 1 3 3 8 4 3 3 2 2 1 2 2 5 6 6 7 8 10 13 18
3 2 8 7 3 3 3 4 7 6 5 5 4 5 3 3 3 2 4 3 10 3 3 2 1 2 1 3 1 6 3 2 1 2 3 3 1 4 8 8 6 8 12 17 20
3 2 10 13 7 6 5 3 3 8 5 7 3 4 4 4 6 3 3 2 5 4 3 1 2 4 5 2 3 3 2 2 3 3 3 3 1 2 5 6 10 12 15 17 19
5 2 2 3 7 5 4 2 3 3 4 8 4 5 3 3 3 3 3 4 4 7 4 3 3 2 2 1 4 2 2 1 4 3 4 3 2 4 5 6 11 11 15 15 20
5 4 8 4 3 4 6 3 3 3 4 3 5 2 4 3 3 3 2 1 1 6 3 4 2 2 2 7 7 4 3 4 3 2 3 2 3 5 13 14 14 19 13 13 25
11 10 4 8 2 3 2 2 3 5 6 6 5 4 3 2 3 2 2 1 2 2 1 2 2 3 3 3 5 2 2 1 2 2 1 2 2 7 6 15 20 25 13 14 29
Wind_Direction
7 1 342 311 285 268 254 242 226 228 236 234 233 234 237 242 249 251 254 259 237 197 189 189 181 171 161 162 149 140 70 215 239 175 259 187 232 123 139 178 191 199 226 239 269
5 4 354 331 298 273 258 243 236 231 237 235 238 236 239 251 261 264 267 251 213 202 192 194 178 166 157 156 156 118 141 219 215 207 257 330 221 178 186 199 250 246 250 249 248
1 0 358 344 311 273 255 244 237 234 234 234 235 234 235 252 286 270 237 215 196 179 182 189 181 164 135 155 171 165 199 221 261 244 277 292 303 264 249 254 245 253 289 257 242
357 356 354 355 334 284 253 242 235 232 230 232 232 226 222 223 224 288 285 192 177 172 179 181 171 160 134 168 176 168 242 235 280 276 317 285 301 286 240 259 284 288 282 274 250
346 349 351 355 354 324 266 241 233 229 227 228 225 213 207 228 254 299 206 169 174 173 187 176 175 154 163 171 149 176 251 249 262 277 275 269 248 254 277 291 294 279 277 279 269
337 340 346 353 359 350 329 254 234 229 226 222 216 209 210 230 245 229 173 172 179 179 187 188 191 170 140 154 172 196 237 269 278 262 239 211 223 210 62 18 26 34 26 4 333
328 330 339 345 354 353 323 323 253 231 224 218 212 210 233 246 216 181 180 174 181 189 189 184 172 170 161 138 253 253 313 316 279 253 208 188 186 260 5 70 59 51 54 56 52
323 323 326 333 341 344 332 298 275 225 214 208 208 218 248 233 218 200 186 187 185 192 196 187 167 165 168 127 27 24 49 347 310 133 1 169 206 65 41 55 46 38 34 35 34
321 318 317 321 328 336 335 320 252 198 193 193 200 208 254 221 214 194 187 187 177 170 157 176 180 155 128 98 15 3 230 206 324 23 106 70 193 41 36 54 47 36 29 23 17
314 313 310 311 313 320 316 341 143 162 168 178 199 222 230 184 183 181 176 176 154 154 133 145 129 94 53 112 223 192 215 232 255 349 42 14 272 58 39 51 44 33 28 25 21
310 309 303 300 295 289 244 140 137 155 190 201 196 190 142 154 150 169 166 162 142 156 143 88 135 213 188 195 132 128 174 245 231 229 20 227 86 26 41 47 39 33 27 23 20
311 305 299 289 278 257 223 212 220 191 273 234 232 224 172 157 134 171 169 169 151 160 126 48 242 196 151 168 179 151 233 261 278 237 156 167 79 63 57 59 51 39 31 22 19
308 302 296 279 262 234 216 220 227 235 120 237 210 219 216 204 156 176 180 160 125 134 178 166 204 95 137 146 163 206 189 213 224 47 243 135 144 134 74 61 50 41 34 29 23
307 302 293 264 241 217 209 206 209 197 70 212 208 169 165 170 91 168 175 165 75 181 159 231 264 162 181 197 157 250 208 199 152 113 222 196 272 132 113 62 45 32 28 23 20
307 307 293 219 200 180 193 186 182 159 23 133 139 128 136 145 132 49 166 121 152 169 127 245 161 147 164 215 162 220 129 165 152 172 85 250 166 115 193 26 28 26 24 22 21
306 322 314 187 188 184 168 160 147 59 247 93 67 79 93 33 59 103 109 91 81 145 348 247 266 255 215 135 178 138 84 50 54 108 251 213 182 121 28 13 24 24 22 19 17
170 38 29 170 185 177 166 154 67 159 342 9 30 38 82 12 47 50 49 33 49 126 0 322 248 308 47 126 54 94 72 323 317 166 233 273 178 57 82 57 44 25 22 20 18
143 67 35 207 185 176 161 72 186 93 51 330 37 72 82 5 37 39 91 69 27 25 79 37 304 3 333 36 206 173 162 172 238 206 235 23 223 109 93 70 50 43 31 23 19
141 84 21 144 172 171 163 73 101 193 277 358 82 102 63 8 98 88 62 94 42 16 101 42 266 329 25 335 10 150 169 193 175 86 110 152 110 137 94 56 36 26 23 21 17
158 352 15 116 154 157 80 99 104 28 335 219 112 340 132 352 83 80 114 343 104 45 330 152 304 73 296 340 26 60 9 225 15 262 247 244 154 119 20 18 25 22 20 12 10
245 127 13 122 133 83 100 93 115 38 57 26 118 95 65 106 58 61 94 24 4 21 56 30 98 302 5 17 334 348 24 17 94 48 251 269 143 53 45 25 23 25 23 15 9
265 75 9 159 58 44 69 49 59 3 34 41 76 66 75 46 67 91 114 49 357 357 71 29 104 225 83 328 75 66 61 64 152 276 9 269 217 38 56 49 37 31 22 12 7
131 70 28 163 115 98 86 73 57 26 31 32 63 40 36 80 98 61 84 112 35 52 147 144 158 64 165 269 101 62 5 9 94 89 225 148 249 64 31 18 21 15 359 358 358
120 65 36 60 63 104 117 71 100 41 61 55 71 67 75 58 24 114 94 77 9 19 31 171 108 161 192 164 118 139 83 50 104 120 224 230 225 299 348 353 343 343 344 348 356
60 83 57 31 27 73 78 72 100 70 66 41 58 60 79 99 70 83 53 6 51 10 46 81 140 91 185 249 93 97 63 90 178 198 167 246 195 231 278 278 331 332 334 343 354
80 106 76 71 60 53 18 46 103 106 32 30 96 82 45 93 80 150 109 52 42 3 58 3 113 91 328 54 104 96 16 89 90 126 88 143 285 215 330 331 327 334 339 340 351
68 82 96 17 38 72 14 122 95 115 40 64 125 105 96 100 63 343 247 185 57 62 84 74 99 71 279 136 139 40 286 27 124 76 81 230 256 333 322 329 326 323 326 336 341